DMSP 5D-2 F13 DEB, 42315

Orbit data source: Space-Track

DMSP 5D-2 F13 DEB, 42315 is space debris in SSO originally from a launch on Fri, 24 Mar 1995 UTC launched from the Air Force Western Test Range (AFWTR). Debris objects in space refer to the collection of defunct objects orbiting the Earth. Examples of debris include non-operational satellites, rocket bodies, and fragments generated from explosions, collisions, or faulty payload assembly.

Loading next visibility...
Identifier
42315, 1995-015JH
Orbit
SSO
Country
Flag of USUS
Related business
Manufacturer
Unknown
Mission
Spacecraft
Bus & Motor
Unknown
Mass
Unknown
Launch date (UTC)
1995-03-24 (31 years ago)
Launch vehicle
Unknown
Launch site
Air Force Western Test Range (AFWTR)
Object type
Payload
Rocket body
Debris
Shape & HBR
Unknown shape, 0.1 m
Radar Cross Section
Small (<0.1 m²)

Expand to show TLE details & history
Last TLE update: 4 days ago

TLE from 4 days ago
0 DMSP 5D-2 F13 DEB
1 42315U 95015JH  25343.10085921  .00009395  00000-0  24163-2 0  9992
2 42315  98.5696  34.0749 0022921  36.9473 323.3294 14.50210846540281
Epoch: 2025-12-09T02:25Z
TLE epoch observation values (Epoch: 2025-12-09T02:25:14.235Z)
Latitude
-0.00005°
Longitude
-80.32479°
Altitude
714.872 km
Speed
7.505 km/s
True Right ascension
02h 16m 17s
True Declination
0° 00' 00"
Sunlit
Object was in full shadow at epoch
Visualization orbit readout
Latitude
Unknown
Longitude
Unknown
Altitude
Unknown
Speed
Unknown
Apparent Right ascension
Unknown
Apparent Declination
Unknown
Sunlit
N/A
Visualization observer readout
Local Sidereal Time
07:30:36
Azimuth
Unknown
Elevation
Unknown
Doppler factor
Unknown
Orbital elements
Apogee altitude
738.346 km
Perigee altitude
705.797 km
Semi-major axis
7,100.209 km
Eccentricity
0.00229
Inclination
98.5696°
RAAN
34.0749°
Arg. of periapsis
36.9473°
True anomaly
323.17218°
Mean anomaly
323.3294°
Eccentric anomaly
323.25082°
Mean motion
3.62774 °/min
Orbital period
99.24 mins
BSTAR
0.0024163

Documentation

Showing up to 5 results
|